Skip Page Navigation
NASA JPL Caltech
NASA Logo - Jet Propulsion Laboratory + View the NASA Portal
+ Center for Near-Earth Object Studies
JPL Home Earth Solar System Stars & Galaxies Technology
JPL Solar System Dynamics
BODIES ORBITS EPHEMERIDES TOOLS PHYSICAL DATA DISCOVERY FAQ SITE MAP

Significant website upgrade scheduled for September 27. More details available here.

JPL Small-Body Database Browser
Search: [ help ]  
211 Isolda (A879 XA)
Classification: Main-belt Asteroid          SPK-ID: 2000211
Ephemeris | Orbit Diagram | Orbital Elements | Mission Design | Physical Parameters | Discovery Circumstances | Close-Approach Data ]

[ show orbit diagram ]
Orbital Elements at Epoch 2459396.5 (2021-Jul-01.0) TDB
Reference: JPL 110 (heliocentric ecliptic J2000)
 Element Value Uncertainty (1-sigma)   Units 
e .1583402102828448 1.7914e-08  
a 3.047066650754788 8.4238e-09 au
q 2.564593476528431 5.6861e-08 au
i 3.87932882810079 1.0973e-06 deg
node 263.6020271798033 1.0932e-05 deg
peri 173.1873297471817 1.3328e-05 deg
M 234.1409467446804 9.8142e-06 deg
tp 2460075.708821125736
(2023-May-11.20882113)
5.4519e-05 TDB
period 1942.769862643394
5.32
8.0563e-06
2.206e-08
d
yr
n .1853024421071535 7.6842e-10 deg/d
Q 3.529539824981145 9.7576e-09 au
  Orbit Determination Parameters
   # obs. used (total)      3180  
   data-arc span      51691 days (141.52 yr)  
   first obs. used      1880-01-30  
   last obs. used      2021-08-09  
   planetary ephem.      DE441  
   SB-pert. ephem.      SB441-N16  
   condition code      0  
   norm. resid. RMS      .43837  
   source      ORB  
   producer      Otto Matic  
   solution date      2021-Aug-25 06:20:42  

Additional Information
 Earth MOID = 1.57986 au 
 Jupiter MOID = 1.73202 au 
 T_jup = 3.215 
[ hide covariance matrix ]
Orbital Elements at Epoch 2456138.5 (2012-Jul-30.0) TDB
Reference: JPL 110 (heliocentric ecliptic J2000)
 Element Value Uncertainty (1-sigma)   Units 
e .1630754134554126 1.7958e-08  
q 2.547204195322658 5.7534e-08 au
tp 2456202.226064615582
(2012-Oct-01.72606462)
4.6344e-05 TDB
node 263.6519730410403 1.0911e-05 deg
peri 173.7806110491263 1.3181e-05 deg
i 3.885421296887272 1.0973e-06 deg
  Orbit Determination Parameters
   # obs. used (total)      3180  
   data-arc span      51691 days (141.52 yr)  
   first obs. used      1880-01-30  
   last obs. used      2021-08-09  
   planetary ephem.      DE441  
   SB-pert. ephem.      SB441-N16  
   condition code      0  
   norm. resid. RMS      .43837  
   source      ORB  
   producer      Otto Matic  
   solution date      2021-Aug-25 06:20:42  

Additional Information
 Jupiter MOID = 1.73202 au 
 T_jup = 3.215 
Orbit Covariance (6×6)
  e q tp node peri i
e 3.22481509648703E-16 -1.025433209266176E-15 -1.742955869860841E-13 -7.692459315086162E-14 6.156794921756567E-14 -4.908306889173802E-15
q -1.025433209266176E-15 3.310203351997943E-15 6.327256542554883E-13 2.394950185613334E-13 -1.744133991041299E-13 1.560532043144838E-14
tp -1.742955869860841E-13 6.327256542554883E-13 2.147791934998024E-9 1.370943321391091E-11 3.122662531815992E-10 2.613750521244132E-12
node -7.692459315086162E-14 2.394950185613334E-13 1.370943321391091E-11 1.190495422131541E-10 -1.208643374659396E-10 9.045512940542574E-12
peri 6.156794921756567E-14 -1.744133991041299E-13 3.122662531815992E-10 -1.208643374659396E-10 1.737333703888484E-10 -9.140857169144829E-12
i -4.908306889173802E-15 1.560532043144838E-14 2.613750521244132E-12 9.045512940542574E-12 -9.140857169144829E-12 1.203990618604279E-12

Ephemeris | Orbit Diagram | Orbital Elements | Mission Design | Physical Parameters | Discovery Circumstances | Close-Approach Data ]

Physical Parameter Table
Parameter Symbol Value Units Sigma Reference Notes
absolute magnitude H 8.04   n/a E2021B10 IRAS observations used: 58
magnitude slope G 0.12   n/a PDS3 (MPC 17258) Fit
diameter diameter 141.125 km 2.486 urn:nasa:pds:neowise_diameters_albedos::2.0[mainbelt] (http://adsabs.harvard.edu/abs/2014ApJ...791..121M)  
rotation period rot_per 18.365 h n/a LCDB (Rev. 2020-October); Warner et al., 2009 Published Reference List:
[Harris, A.W.; Young, J.W. (1989) Icarus 81, 314-364.]
[Behrend, R. (2006) Observatoire de Geneve web site, http://obswww.unige.ch/~behrend/page_cou.html]
geometric albedo albedo 0.062   0.008 urn:nasa:pds:neowise_diameters_albedos::2.0[mainbelt] (http://adsabs.harvard.edu/abs/2014ApJ...791..121M)  
B-V BV 0.711   0.020 EAR-A-5-DDR-UBV-MEAN-VALUES-V1.2 #obs=5; phase (min.=3.43, mean=6.84, max.=18.45) deg.
U-B UB 0.364   0.031 EAR-A-5-DDR-UBV-MEAN-VALUES-V1.2 #obs=5; phase (min.=3.43, mean=6.84, max.=18.45) deg.
Tholen spectral type spec_T C   n/a EAR-A-5-DDR-TAXONOMY-V4.0 used 7 color indices; used ground-based radiometric albedo
SMASSII spectral type spec_B Ch   n/a EAR-A-5-DDR-TAXONOMY-V4.0 based on a high-resolution spectrum by Xu et al. (1995) or Bus and Binzel (2002)

211 Isolda (A879 XA)          Discovered 1879-Dec-10 by Palisa, J. at Pola
Reference: DISCOVERY.DBLast Updated: 2003-08-29

[ hide close-approach data ]
Close-Approach Data   ...sorted by Date/Time (TDB)
Date/Time (TDB) Time Uncertainty
(days_HH:MM)
Body Nominal Distance (au) Minimum Distance (au) Maximum Distance (au) V-relative (km/s) V-infinity (km/s) JD (TDB) Time Uncertainty (minutes) Semi-major axis (km) Semi-minor axis (km) range-LOV angle (deg) N-sigma BP Orbit Ref. Reference Modified
1925-Oct-14 05:14 00:01 Jupiter 1.77356855015745 1.7735682305926 1.7735688697223 2.31140739109471 2.09462222725405 2424437.717816254 1.20440920204213 23.1322850092422 2.21770457779078 74.6047665954204 4228915.87378163 T 110 CATAB v2.0g-lin.ifort 2021-Aug-25 06:21:50 2021-Aug-25 06:21
1973-Dec-25 15:16 < 00:01 Jupiter 1.87213353566827 1.87213322170457 1.87213384963207 2.72227008362173 2.55066273259236 2442042.135894603 0.559433757951546 28.7053995252372 5.189041152758 76.6653143884882 5281531.90351192 T 110 CATAB v2.0g-lin.ifort 2021-Aug-25 06:21:50 2021-Aug-25 06:21
1983-May-13 19:57 < 00:01 Jupiter 1.8666191007715 1.86661886042482 1.86661934111819 2.28776099018668 2.07997670738851 2445468.331266841 0.413319439592724 17.9955228406727 4.08936764787733 77.9842367591586 6573349.64576659 T 110 CATAB v2.0g-lin.ifort 2021-Aug-25 06:21:50 2021-Aug-25 06:21
2031-Jul-19 00:39 < 00:01 Jupiter 1.75634647620756 1.75634631455735 1.75634663785776 2.14671298524319 1.90888680384526 2463066.527104162 0.248311638587561 12.1674773270403 4.46814199438436 65.1093319546135 6387974.23782458 T 110 CATAB v2.0g-lin.ifort 2021-Aug-25 06:21:50 2021-Aug-25 06:21
2079-Sep-22 10:39 < 00:01 Jupiter 1.73266653987793 1.7326663726139 1.73266670714196 2.14710388578415 1.90587127475098 2480663.943537894 0.905590355464656 17.1603805383984 2.52202273276167 68.9667837016362 6799774.17058475 T 110 CATAB v2.0g-lin.ifort 2021-Aug-25 06:21:50 2021-Aug-25 06:21
2127-Dec-03 03:39 00:02 Jupiter 1.79739672734086 1.7973963150488 1.79739713963323 2.36891166309543 2.16084317864656 2498266.652026896 1.60234555191174 55.9490711267731 2.28326375666888 84.4001844413721 4637119.53410884 T 110 CATAB v2.0g-lin.ifort 2021-Aug-25 06:21:50 2021-Aug-25 06:21
2137-Apr-22 20:50 00:02 Jupiter 1.94400599466462 1.94400526344271 1.94400672588708 2.49019927292194 2.30860840539983 2501695.367965753 1.68854498814153 70.7999559434589 4.91155408819749 69.067666310307 7322027.64282942 T 110 CATAB v2.0g-lin.ifort 2021-Aug-25 06:21:50 2021-Aug-25 06:21
2176-Feb-16 08:41 00:02 Jupiter 1.92877706061942 1.92877626637673 1.92877785486375 2.99539575420478 2.84501241771463 2515873.861900290 2.23804656098329 105.746096722587 6.23283022662646 78.307060185236 6063942.49657357 T 110 CATAB v2.0g-lin.ifort 2021-Aug-25 06:21:50 2021-Aug-25 06:21
2185-Jun-27 16:53 00:02 Jupiter 1.80155639133175 1.80155567898712 1.80155710367761 2.22595254584985 2.00363212051939 2519293.203758743 2.34078119617802 89.9159925990979 4.4936311958806 75.1789400991602 6140028.38325591 T 110 CATAB v2.0g-lin.ifort 2021-Aug-25 06:21:50 2021-Aug-25 06:21

Alternate Designations
 A879 XA = 1950 FM = A912 AB = A912 BA 
Ephemeris | Orbit Diagram | Orbital Elements | Mission Design | Physical Parameters | Discovery Circumstances | Close-Approach Data ]
ABOUT SSD CREDITS/AWARDS PRIVACY/COPYRIGHT GLOSSARY LINKS
FirstGov 2021-Sep-18 11:43 UT
(server date/time)  
NASA Home Page
Site Manager:   Ryan S. Park
Webmaster  Alan B. Chamberlin